Year,Month,Day,Hour,Minute,Value (Times are PST for temperature in C)
2021,04,16,00,00,6.50
2021,04,16,00,01,6.50
2021,04,16,00,02,6.40
2021,04,16,00,03,6.40
2021,04,16,00,04,6.40
2021,04,16,00,05,6.40
2021,04,16,00,06,6.40
2021,04,16,00,07,6.30
2021,04,16,00,08,6.30
2021,04,16,00,09,6.30
2021,04,16,00,10,6.30
2021,04,16,00,11,6.30
2021,04,16,00,12,6.30
2021,04,16,00,13,6.20
2021,04,16,00,14,6.20
2021,04,16,00,15,6.20
2021,04,16,00,16,6.20
2021,04,16,00,17,6.10
2021,04,16,00,18,6.10
2021,04,16,00,19,6.10
2021,04,16,00,20,6.10
2021,04,16,00,21,6.10
2021,04,16,00,22,6.00
2021,04,16,00,23,6.00
2021,04,16,00,24,6.00
2021,04,16,00,25,5.90
2021,04,16,00,26,5.90
2021,04,16,00,27,5.90
2021,04,16,00,28,5.90
2021,04,16,00,29,5.90
2021,04,16,00,30,5.90
2021,04,16,00,31,5.80
2021,04,16,00,32,5.80
2021,04,16,00,33,5.80
2021,04,16,00,34,5.80
2021,04,16,00,35,5.80
2021,04,16,00,36,5.80
2021,04,16,00,37,5.70
2021,04,16,00,38,5.70
2021,04,16,00,39,5.70
2021,04,16,00,40,5.70
2021,04,16,00,41,5.60
2021,04,16,00,42,5.60
2021,04,16,00,43,5.60
2021,04,16,00,44,5.60
2021,04,16,00,45,5.60
2021,04,16,00,46,5.60
2021,04,16,00,47,5.50
2021,04,16,00,48,5.50
2021,04,16,00,49,5.50
2021,04,16,00,50,5.50
2021,04,16,00,51,5.40
2021,04,16,00,52,5.40
2021,04,16,00,53,5.40
2021,04,16,00,54,5.40
2021,04,16,00,55,5.40
2021,04,16,00,56,5.40
2021,04,16,00,57,5.30
2021,04,16,00,58,5.30
2021,04,16,00,59,5.30
2021,04,16,01,00,5.30
2021,04,16,01,01,5.30
2021,04,16,01,02,5.30
2021,04,16,01,03,5.30
2021,04,16,01,04,5.30
2021,04,16,01,05,5.20
2021,04,16,01,06,5.20
2021,04,16,01,07,5.20
2021,04,16,01,08,5.20
2021,04,16,01,09,5.20
2021,04,16,01,10,5.20
2021,04,16,01,11,5.20
2021,04,16,01,12,5.20
2021,04,16,01,13,5.10
2021,04,16,01,14,5.10
2021,04,16,01,15,5.10
2021,04,16,01,16,5.10
2021,04,16,01,17,5.10
2021,04,16,01,18,5.10
2021,04,16,01,19,5.00
2021,04,16,01,20,5.00
2021,04,16,01,21,5.00
2021,04,16,01,22,5.00
2021,04,16,01,23,5.00
2021,04,16,01,24,4.90
2021,04,16,01,25,4.90
2021,04,16,01,26,4.90
2021,04,16,01,27,4.90
2021,04,16,01,28,4.90
2021,04,16,01,29,4.90
2021,04,16,01,30,4.90
2021,04,16,01,31,4.90
2021,04,16,01,32,4.80
2021,04,16,01,33,4.80
2021,04,16,01,34,4.80
2021,04,16,01,35,4.80
2021,04,16,01,36,4.80
2021,04,16,01,37,4.80
2021,04,16,01,38,4.80
2021,04,16,01,39,4.80
2021,04,16,01,40,4.70
2021,04,16,01,41,4.70
2021,04,16,01,42,4.70
2021,04,16,01,43,4.70
2021,04,16,01,44,4.70
2021,04,16,01,45,4.70
2021,04,16,01,46,4.60
2021,04,16,01,47,4.60
2021,04,16,01,48,4.60
2021,04,16,01,49,4.60
2021,04,16,01,50,4.60
2021,04,16,01,51,4.60
2021,04,16,01,52,4.60
2021,04,16,01,53,4.60
2021,04,16,01,54,4.60
2021,04,16,01,55,4.50
2021,04,16,01,56,4.50
2021,04,16,01,57,4.50
2021,04,16,01,58,4.50
2021,04,16,01,59,4.50
2021,04,16,02,00,4.50
2021,04,16,02,01,4.40
2021,04,16,02,02,4.40
2021,04,16,02,03,4.40
2021,04,16,02,04,4.40
2021,04,16,02,05,4.40
2021,04,16,02,06,4.40
2021,04,16,02,07,4.30
2021,04,16,02,08,4.30
2021,04,16,02,09,4.30
2021,04,16,02,10,4.30
2021,04,16,02,11,4.30
2021,04,16,02,12,4.30
2021,04,16,02,13,4.30
2021,04,16,02,14,4.20
2021,04,16,02,15,4.20
2021,04,16,02,16,4.20
2021,04,16,02,17,4.20
2021,04,16,02,18,4.20
2021,04,16,02,19,4.20
2021,04,16,02,20,4.20
2021,04,16,02,21,4.20
2021,04,16,02,22,4.20
2021,04,16,02,23,4.20
2021,04,16,02,24,4.10
2021,04,16,02,25,4.10
2021,04,16,02,26,4.10
2021,04,16,02,27,4.10
2021,04,16,02,28,4.10
2021,04,16,02,29,4.10
2021,04,16,02,30,4.10
2021,04,16,02,31,4.00
2021,04,16,02,32,4.00
2021,04,16,02,33,4.00
2021,04,16,02,34,4.00
2021,04,16,02,35,4.00
2021,04,16,02,36,4.00
2021,04,16,02,37,3.90
2021,04,16,02,38,3.90
2021,04,16,02,39,3.90
2021,04,16,02,40,3.90
2021,04,16,02,41,3.90
2021,04,16,02,42,3.90
2021,04,16,02,43,3.80
2021,04,16,02,44,3.80
2021,04,16,02,45,3.80
2021,04,16,02,46,3.80
2021,04,16,02,47,3.80
2021,04,16,02,48,3.80
2021,04,16,02,49,3.80
2021,04,16,02,50,3.80
2021,04,16,02,51,3.80
2021,04,16,02,52,3.80
2021,04,16,02,53,3.70
2021,04,16,02,54,3.70
2021,04,16,02,55,3.70
2021,04,16,02,56,3.70
2021,04,16,02,57,3.70
2021,04,16,02,58,3.70
2021,04,16,02,59,3.70
2021,04,16,03,00,3.70
2021,04,16,03,01,3.70
2021,04,16,03,02,3.70
2021,04,16,03,03,3.70
2021,04,16,03,04,3.70
2021,04,16,03,05,3.70
2021,04,16,03,06,3.60
2021,04,16,03,07,3.60
2021,04,16,03,08,3.60
2021,04,16,03,09,3.60
2021,04,16,03,10,3.60
2021,04,16,03,11,3.60
2021,04,16,03,12,3.60
2021,04,16,03,13,3.50
2021,04,16,03,14,3.50
2021,04,16,03,15,3.50
2021,04,16,03,16,3.50
2021,04,16,03,17,3.40
2021,04,16,03,18,3.40
2021,04,16,03,19,3.40
2021,04,16,03,20,3.40
2021,04,16,03,21,3.40
2021,04,16,03,22,3.40
2021,04,16,03,23,3.40
2021,04,16,03,24,3.40
2021,04,16,03,25,3.30
2021,04,16,03,26,3.30
2021,04,16,03,27,3.30
2021,04,16,03,28,3.30
2021,04,16,03,29,3.30
2021,04,16,03,30,3.30
2021,04,16,03,31,3.30
2021,04,16,03,32,3.30
2021,04,16,03,33,3.30
2021,04,16,03,34,3.30
2021,04,16,03,35,3.30
2021,04,16,03,36,3.30
2021,04,16,03,37,3.30
2021,04,16,03,38,3.30
2021,04,16,03,39,3.20
2021,04,16,03,40,3.20
2021,04,16,03,41,3.20
2021,04,16,03,42,3.20
2021,04,16,03,43,3.20
2021,04,16,03,44,3.20
2021,04,16,03,45,3.20
2021,04,16,03,46,3.20
2021,04,16,03,47,3.10
2021,04,16,03,48,3.10
2021,04,16,03,49,3.10
2021,04,16,03,50,3.10
2021,04,16,03,51,3.10
2021,04,16,03,52,3.10
2021,04,16,03,53,3.10
2021,04,16,03,54,3.00
2021,04,16,03,55,3.00
2021,04,16,03,56,3.00
2021,04,16,03,57,3.00
2021,04,16,03,58,3.00
2021,04,16,03,59,3.00
2021,04,16,04,00,2.90
2021,04,16,04,01,2.90
2021,04,16,04,02,2.90
2021,04,16,04,03,2.90
2021,04,16,04,04,2.90
2021,04,16,04,05,2.90
2021,04,16,04,06,2.90
2021,04,16,04,07,2.90
2021,04,16,04,08,2.90
2021,04,16,04,09,2.90
2021,04,16,04,10,2.80
2021,04,16,04,11,2.80
2021,04,16,04,12,2.80
2021,04,16,04,13,2.80
2021,04,16,04,14,2.80
2021,04,16,04,15,2.80
2021,04,16,04,16,2.80
2021,04,16,04,17,2.80
2021,04,16,04,18,2.80
2021,04,16,04,19,2.70
2021,04,16,04,20,2.70
2021,04,16,04,21,2.70
2021,04,16,04,22,2.70
2021,04,16,04,23,2.70
2021,04,16,04,24,2.70
2021,04,16,04,25,2.70
2021,04,16,04,26,2.70
2021,04,16,04,27,2.70
2021,04,16,04,28,2.70
2021,04,16,04,29,2.70
2021,04,16,04,30,2.60
2021,04,16,04,31,2.60
2021,04,16,04,32,2.60
2021,04,16,04,33,2.60
2021,04,16,04,34,2.60
2021,04,16,04,35,2.60
2021,04,16,04,36,2.60
2021,04,16,04,37,2.60
2021,04,16,04,38,2.60
2021,04,16,04,39,2.60
2021,04,16,04,40,2.60
2021,04,16,04,41,2.50
2021,04,16,04,42,2.50
2021,04,16,04,43,2.50
2021,04,16,04,44,2.50
2021,04,16,04,45,2.50
2021,04,16,04,46,2.50
2021,04,16,04,47,2.40
2021,04,16,04,48,2.40
2021,04,16,04,49,2.40
2021,04,16,04,50,2.40
2021,04,16,04,51,2.40
2021,04,16,04,52,2.40
2021,04,16,04,53,2.40
2021,04,16,04,54,2.40
2021,04,16,04,55,2.30
2021,04,16,04,56,2.30
2021,04,16,04,57,2.30
2021,04,16,04,58,2.30
2021,04,16,04,59,2.30
2021,04,16,05,00,2.30
2021,04,16,05,01,2.30
2021,04,16,05,02,2.30
2021,04,16,05,03,2.30
2021,04,16,05,04,2.30
2021,04,16,05,05,2.20
2021,04,16,05,06,2.20
2021,04,16,05,07,2.20
2021,04,16,05,08,2.20
2021,04,16,05,09,2.20
2021,04,16,05,10,2.20
2021,04,16,05,11,2.20
2021,04,16,05,12,2.20
2021,04,16,05,13,2.20
2021,04,16,05,14,2.10
2021,04,16,05,15,2.10
2021,04,16,05,16,2.10
2021,04,16,05,17,2.10
2021,04,16,05,18,2.10
2021,04,16,05,19,2.10
2021,04,16,05,20,2.10
2021,04,16,05,21,2.10
2021,04,16,05,22,2.10
2021,04,16,05,23,2.10
2021,04,16,05,24,2.10
2021,04,16,05,25,2.10
2021,04,16,05,26,2.10
2021,04,16,05,27,2.10
2021,04,16,05,28,2.10
2021,04,16,05,29,2.10
2021,04,16,05,30,2.10
2021,04,16,05,31,2.00
2021,04,16,05,32,2.00
2021,04,16,05,33,2.00
2021,04,16,05,34,2.00
2021,04,16,05,35,1.90
2021,04,16,05,36,1.90
2021,04,16,05,37,1.90
2021,04,16,05,38,1.90
2021,04,16,05,39,1.90
2021,04,16,05,40,1.90
2021,04,16,05,41,1.80
2021,04,16,05,42,1.80
2021,04,16,05,43,1.80
2021,04,16,05,44,1.80
2021,04,16,05,45,1.80
2021,04,16,05,46,1.80
2021,04,16,05,47,1.80
2021,04,16,05,48,1.80
2021,04,16,05,49,1.80
2021,04,16,05,50,1.80
2021,04,16,05,51,1.80
2021,04,16,05,52,1.80
2021,04,16,05,53,1.80
2021,04,16,05,54,1.80
2021,04,16,05,55,1.80
2021,04,16,05,56,1.70
2021,04,16,05,57,1.70
2021,04,16,05,58,1.70
2021,04,16,05,59,1.70
2021,04,16,06,00,1.70
2021,04,16,06,01,1.70
2021,04,16,06,02,1.70
2021,04,16,06,03,1.70
2021,04,16,06,04,1.70
2021,04,16,06,05,1.70
2021,04,16,06,06,1.70
2021,04,16,06,07,1.70
2021,04,16,06,08,1.70
2021,04,16,06,09,1.60
2021,04,16,06,10,1.60
2021,04,16,06,11,1.60
2021,04,16,06,12,1.60
2021,04,16,06,13,1.60
2021,04,16,06,14,1.60
2021,04,16,06,15,1.60
2021,04,16,06,16,1.60
2021,04,16,06,17,1.60
2021,04,16,06,18,1.60
2021,04,16,06,19,1.60
2021,04,16,06,20,1.60
2021,04,16,06,21,1.50
2021,04,16,06,22,1.50
2021,04,16,06,23,1.50
2021,04,16,06,24,1.50
2021,04,16,06,25,1.50
2021,04,16,06,26,1.50
2021,04,16,06,27,1.40
2021,04,16,06,28,1.40
2021,04,16,06,29,1.40
2021,04,16,06,30,1.40
2021,04,16,06,31,1.40
2021,04,16,06,32,1.40
2021,04,16,06,33,1.40
2021,04,16,06,34,1.40
2021,04,16,06,35,1.40
2021,04,16,06,36,1.40
2021,04,16,06,37,1.40
2021,04,16,06,38,1.40
2021,04,16,06,39,1.40
2021,04,16,06,40,1.40
2021,04,16,06,41,1.40
2021,04,16,06,42,1.40
2021,04,16,06,43,1.40
2021,04,16,06,44,1.40
2021,04,16,06,45,1.40
2021,04,16,06,46,1.40
2021,04,16,06,47,1.40
2021,04,16,06,48,1.40
2021,04,16,06,49,1.40
2021,04,16,06,50,1.40
2021,04,16,06,51,1.40
2021,04,16,06,52,1.40
2021,04,16,06,53,1.40
2021,04,16,06,54,1.40
2021,04,16,06,55,1.40
2021,04,16,06,56,1.40
2021,04,16,06,57,1.40
2021,04,16,06,58,1.30
2021,04,16,06,59,1.30
2021,04,16,07,00,1.30
2021,04,16,07,01,1.30
2021,04,16,07,02,1.30
2021,04,16,07,03,1.30
2021,04,16,07,04,1.30
2021,04,16,07,05,1.30
2021,04,16,07,06,1.30
2021,04,16,07,07,1.30
2021,04,16,07,08,1.30
2021,04,16,07,09,1.30
2021,04,16,07,10,1.30
2021,04,16,07,11,1.30
2021,04,16,07,12,1.30
2021,04,16,07,13,1.30
2021,04,16,07,14,1.30
2021,04,16,07,15,1.30
2021,04,16,07,16,1.30
2021,04,16,07,17,1.30
2021,04,16,07,18,1.30
2021,04,16,07,19,1.30
2021,04,16,07,20,1.30
2021,04,16,07,21,1.30
2021,04,16,07,22,1.30
2021,04,16,07,23,1.30
2021,04,16,07,24,1.40
2021,04,16,07,25,1.40
2021,04,16,07,26,1.30
2021,04,16,07,27,1.30
2021,04,16,07,28,1.40
2021,04,16,07,29,1.30
2021,04,16,07,30,1.30
2021,04,16,07,31,1.30
2021,04,16,07,32,1.30
2021,04,16,07,33,1.40
2021,04,16,07,34,1.40
2021,04,16,07,35,1.40
2021,04,16,07,36,1.40
2021,04,16,07,37,1.40
2021,04,16,07,38,1.40
2021,04,16,07,39,1.40
2021,04,16,07,40,1.40
2021,04,16,07,41,1.40
2021,04,16,07,42,1.40
2021,04,16,07,43,1.40
2021,04,16,07,44,1.40
2021,04,16,07,45,1.40
2021,04,16,07,46,1.40
2021,04,16,07,47,1.40
2021,04,16,07,48,1.40
2021,04,16,07,49,1.40
2021,04,16,07,50,1.40
2021,04,16,07,51,1.40
2021,04,16,07,52,1.40
2021,04,16,07,53,1.40
2021,04,16,07,54,1.40
2021,04,16,07,55,1.40
2021,04,16,07,56,1.50
2021,04,16,07,57,1.50
2021,04,16,07,58,1.50
2021,04,16,07,59,1.50
2021,04,16,08,00,1.60
2021,04,16,08,01,1.70
2021,04,16,08,02,1.80
2021,04,16,08,03,1.90
2021,04,16,08,04,2.00
2021,04,16,08,05,2.10
2021,04,16,08,06,2.20
2021,04,16,08,07,2.30
2021,04,16,08,08,2.30
2021,04,16,08,09,2.40
2021,04,16,08,10,2.50
2021,04,16,08,11,2.60
2021,04,16,08,12,2.70
2021,04,16,08,13,2.80
2021,04,16,08,14,2.80
2021,04,16,08,15,2.90
2021,04,16,08,16,3.00
2021,04,16,08,17,3.10
2021,04,16,08,18,3.20
2021,04,16,08,19,3.30
2021,04,16,08,20,3.40
2021,04,16,08,21,3.50
2021,04,16,08,22,3.60
2021,04,16,08,23,3.70
2021,04,16,08,24,3.80
2021,04,16,08,25,3.80
2021,04,16,08,26,3.90
2021,04,16,08,27,3.90
2021,04,16,08,28,4.00
2021,04,16,08,29,4.10
2021,04,16,08,30,4.10
2021,04,16,08,31,4.20
2021,04,16,08,32,4.30
2021,04,16,08,33,4.30
2021,04,16,08,34,4.40
2021,04,16,08,35,4.50
2021,04,16,08,36,4.50
2021,04,16,08,37,4.60
2021,04,16,08,38,4.70
2021,04,16,08,39,4.80
2021,04,16,08,40,4.80
2021,04,16,08,41,4.90
2021,04,16,08,42,5.00
2021,04,16,08,43,5.10
2021,04,16,08,44,5.20
2021,04,16,08,45,5.20
2021,04,16,08,46,5.30
2021,04,16,08,47,5.40
2021,04,16,08,48,5.50
2021,04,16,08,49,5.50
2021,04,16,08,50,5.60
2021,04,16,08,51,5.70
2021,04,16,08,52,5.80
2021,04,16,08,53,5.80
2021,04,16,08,54,5.90
2021,04,16,08,55,5.90
2021,04,16,08,56,6.00
2021,04,16,08,57,6.10
2021,04,16,08,58,6.20
2021,04,16,08,59,6.20
2021,04,16,09,00,6.30
2021,04,16,09,01,6.40
2021,04,16,09,02,6.50
2021,04,16,09,03,6.60
2021,04,16,09,04,6.70
2021,04,16,09,05,6.80
2021,04,16,09,06,6.80
2021,04,16,09,07,6.90
2021,04,16,09,08,6.90
2021,04,16,09,09,7.00
2021,04,16,09,10,7.10
2021,04,16,09,11,7.10
2021,04,16,09,12,7.20
2021,04,16,09,13,7.20
2021,04,16,09,14,7.30
2021,04,16,09,15,7.30
2021,04,16,09,16,7.40
2021,04,16,09,17,7.40
2021,04,16,09,18,7.50
2021,04,16,09,19,7.60
2021,04,16,09,20,7.60
2021,04,16,09,21,7.70
2021,04,16,09,22,7.80
2021,04,16,09,23,7.80
2021,04,16,09,24,7.90
2021,04,16,09,25,8.00
2021,04,16,09,26,8.10
2021,04,16,09,27,8.10
2021,04,16,09,28,8.20
2021,04,16,09,29,8.30
2021,04,16,09,30,8.40
2021,04,16,09,31,8.50
2021,04,16,09,32,8.60
2021,04,16,09,33,8.70
2021,04,16,09,34,8.70
2021,04,16,09,35,8.80
2021,04,16,09,36,8.90
2021,04,16,09,37,8.90
2021,04,16,09,38,9.00
2021,04,16,09,39,9.10
2021,04,16,09,40,9.20
2021,04,16,09,41,9.20
2021,04,16,09,42,9.30
2021,04,16,09,43,9.40
2021,04,16,09,44,9.40
2021,04,16,09,45,9.40
2021,04,16,09,46,9.40
2021,04,16,09,47,9.40
2021,04,16,09,48,9.40
2021,04,16,09,49,9.40
2021,04,16,09,50,9.50
2021,04,16,09,51,9.50
2021,04,16,09,52,9.60
2021,04,16,09,53,9.70
2021,04,16,09,54,9.70
2021,04,16,09,55,9.80
2021,04,16,09,56,9.80
2021,04,16,09,57,9.90
2021,04,16,09,58,9.90
2021,04,16,09,59,10.00
2021,04,16,10,00,10.00
2021,04,16,10,01,10.10
2021,04,16,10,02,10.20
2021,04,16,10,03,10.20
2021,04,16,10,04,10.30
2021,04,16,10,05,10.40
2021,04,16,10,06,10.50
2021,04,16,10,07,10.60
2021,04,16,10,08,10.70
2021,04,16,10,09,10.80
2021,04,16,10,10,10.90
2021,04,16,10,11,11.00
2021,04,16,10,12,11.00
2021,04,16,10,13,11.10
2021,04,16,10,14,11.20
2021,04,16,10,15,11.30
2021,04,16,10,16,11.40
2021,04,16,10,17,11.50
2021,04,16,10,18,11.60
2021,04,16,10,19,11.70
2021,04,16,10,20,11.80
2021,04,16,10,21,11.90
2021,04,16,10,22,12.00
2021,04,16,10,23,12.10
2021,04,16,10,24,12.20
2021,04,16,10,25,12.20
2021,04,16,10,26,12.20
2021,04,16,10,27,12.30
2021,04,16,10,28,12.30
2021,04,16,10,29,12.30
2021,04,16,10,30,12.30
2021,04,16,10,31,12.30
2021,04,16,10,32,12.30
2021,04,16,10,33,12.30
2021,04,16,10,34,12.30
2021,04,16,10,35,12.30
2021,04,16,10,36,12.30
2021,04,16,10,37,12.40
2021,04,16,10,38,12.50
2021,04,16,10,39,12.50
2021,04,16,10,40,12.60
2021,04,16,10,41,12.80
2021,04,16,10,42,12.90
2021,04,16,10,43,13.00
2021,04,16,10,44,13.10
2021,04,16,10,45,13.20
2021,04,16,10,46,13.30
2021,04,16,10,47,13.30
2021,04,16,10,48,13.40
2021,04,16,10,49,13.50
2021,04,16,10,50,13.50
2021,04,16,10,51,13.60
2021,04,16,10,52,13.70
2021,04,16,10,53,13.70
2021,04,16,10,54,13.70
2021,04,16,10,55,13.70
2021,04,16,10,56,13.80
2021,04,16,10,57,13.90
2021,04,16,10,58,13.90
2021,04,16,10,59,14.00
2021,04,16,11,00,14.10
2021,04,16,11,01,14.20
2021,04,16,11,02,14.30
2021,04,16,11,03,14.40
2021,04,16,11,04,14.60
2021,04,16,11,05,14.70
2021,04,16,11,06,14.80
2021,04,16,11,07,14.80
2021,04,16,11,08,14.80
2021,04,16,11,09,14.70
2021,04,16,11,10,14.70
2021,04,16,11,11,14.70
2021,04,16,11,12,14.80
2021,04,16,11,13,14.80
2021,04,16,11,14,14.80
2021,04,16,11,15,14.90
2021,04,16,11,16,15.00
2021,04,16,11,17,15.00
2021,04,16,11,18,15.10
2021,04,16,11,19,15.30
2021,04,16,11,20,15.40
2021,04,16,11,21,15.50
2021,04,16,11,22,15.60
2021,04,16,11,23,15.80
2021,04,16,11,24,15.90
2021,04,16,11,25,16.00
2021,04,16,11,26,16.10
2021,04,16,11,27,16.10
2021,04,16,11,28,16.20
2021,04,16,11,29,16.20
2021,04,16,11,30,16.30
2021,04,16,11,31,16.30
2021,04,16,11,32,16.40
2021,04,16,11,33,16.60
2021,04,16,11,34,16.70
2021,04,16,11,35,16.80
2021,04,16,11,36,16.80
2021,04,16,11,37,16.90
2021,04,16,11,38,17.00
2021,04,16,11,39,17.10
2021,04,16,11,40,17.20
2021,04,16,11,41,17.20
2021,04,16,11,42,17.20
2021,04,16,11,43,17.30
2021,04,16,11,44,17.40
2021,04,16,11,45,17.40
2021,04,16,11,46,17.50
2021,04,16,11,47,17.50
2021,04,16,11,48,17.60
2021,04,16,11,49,17.60
2021,04,16,11,50,17.60
2021,04,16,11,51,17.60
2021,04,16,11,52,17.60
2021,04,16,11,53,17.60
2021,04,16,11,54,17.70
2021,04,16,11,55,17.70
2021,04,16,11,56,17.70
2021,04,16,11,57,17.80
2021,04,16,11,58,17.90
2021,04,16,11,59,18.00
2021,04,16,12,00,18.10
2021,04,16,12,01,18.10
2021,04,16,12,02,18.20
2021,04,16,12,03,18.20
2021,04,16,12,04,18.30
2021,04,16,12,05,18.30
2021,04,16,12,06,18.30
2021,04,16,12,07,18.30
2021,04,16,12,08,18.30
2021,04,16,12,09,18.30
2021,04,16,12,10,18.40
2021,04,16,12,11,18.40
2021,04,16,12,12,18.50
2021,04,16,12,13,18.50
2021,04,16,12,14,18.60
2021,04,16,12,15,18.70
2021,04,16,12,16,18.80
2021,04,16,12,17,18.90
2021,04,16,12,18,19.00
2021,04,16,12,19,19.10
2021,04,16,12,20,19.10
2021,04,16,12,21,19.20
2021,04,16,12,22,19.30
2021,04,16,12,23,19.40
2021,04,16,12,24,19.60
2021,04,16,12,25,19.70
2021,04,16,12,26,19.70
2021,04,16,12,27,19.70
2021,04,16,12,28,19.70
2021,04,16,12,29,19.70
2021,04,16,12,30,19.60
2021,04,16,12,31,19.60
2021,04,16,12,32,19.70
2021,04,16,12,33,19.70
2021,04,16,12,34,19.80
2021,04,16,12,35,19.90
2021,04,16,12,36,20.00
2021,04,16,12,37,20.00
2021,04,16,12,38,20.10
2021,04,16,12,39,20.20
2021,04,16,12,40,20.20
2021,04,16,12,41,20.30
2021,04,16,12,42,20.30
2021,04,16,12,43,20.40
2021,04,16,12,44,20.50
2021,04,16,12,45,20.60
2021,04,16,12,46,20.60
2021,04,16,12,47,20.60
2021,04,16,12,48,20.70
2021,04,16,12,49,20.80
2021,04,16,12,50,20.80
2021,04,16,12,51,20.90
2021,04,16,12,52,21.00
2021,04,16,12,53,21.10
2021,04,16,12,54,21.10
2021,04,16,12,55,21.20
2021,04,16,12,56,21.30
2021,04,16,12,57,21.40
2021,04,16,12,58,21.50
2021,04,16,12,59,21.50
2021,04,16,13,00,21.60
2021,04,16,13,01,21.60
2021,04,16,13,02,21.60
2021,04,16,13,03,21.60
2021,04,16,13,04,21.70
2021,04,16,13,05,21.70
2021,04,16,13,06,21.70
2021,04,16,13,07,21.70
2021,04,16,13,08,21.70
2021,04,16,13,09,21.80
2021,04,16,13,10,21.80
2021,04,16,13,11,21.80
2021,04,16,13,12,21.90
2021,04,16,13,13,22.00
2021,04,16,13,14,22.10
2021,04,16,13,15,22.20
2021,04,16,13,16,22.30
2021,04,16,13,17,22.30
2021,04,16,13,18,22.40
2021,04,16,13,19,22.50
2021,04,16,13,20,22.60
2021,04,16,13,21,22.80
2021,04,16,13,22,22.90
2021,04,16,13,23,23.00
2021,04,16,13,24,23.20
2021,04,16,13,25,23.30
2021,04,16,13,26,23.40
2021,04,16,13,27,23.50
2021,04,16,13,28,23.50
2021,04,16,13,29,23.60
2021,04,16,13,30,23.60
2021,04,16,13,31,23.70
2021,04,16,13,32,23.70
2021,04,16,13,33,23.70
2021,04,16,13,34,23.70
2021,04,16,13,35,23.70
2021,04,16,13,36,23.70
2021,04,16,13,37,23.70
2021,04,16,13,38,23.70
2021,04,16,13,39,23.70
2021,04,16,13,40,23.80
2021,04,16,13,41,23.90
2021,04,16,13,42,24.00
2021,04,16,13,43,24.10
2021,04,16,13,44,24.20
2021,04,16,13,45,24.40
2021,04,16,13,46,24.60
2021,04,16,13,47,24.60
2021,04,16,13,48,24.60
2021,04,16,13,49,24.60
2021,04,16,13,50,24.60
2021,04,16,13,51,24.60
2021,04,16,13,52,24.70
2021,04,16,13,53,24.80
2021,04,16,13,54,24.90
2021,04,16,13,55,25.00
2021,04,16,13,56,25.00
2021,04,16,13,57,25.10
2021,04,16,13,58,25.20
2021,04,16,13,59,25.30
2021,04,16,14,00,25.20
2021,04,16,14,01,25.20
2021,04,16,14,02,25.10
2021,04,16,14,03,25.00
2021,04,16,14,04,24.90
2021,04,16,14,05,24.80
2021,04,16,14,06,24.70
2021,04,16,14,07,24.70
2021,04,16,14,08,24.70
2021,04,16,14,09,24.80
2021,04,16,14,10,24.90
2021,04,16,14,11,25.00
2021,04,16,14,12,25.00
2021,04,16,14,13,24.90
2021,04,16,14,14,24.90
2021,04,16,14,15,24.90
2021,04,16,14,16,24.80
2021,04,16,14,17,24.80
2021,04,16,14,18,24.80
2021,04,16,14,19,24.80
2021,04,16,14,20,24.80
2021,04,16,14,21,24.80
2021,04,16,14,22,24.80
2021,04,16,14,23,24.80
2021,04,16,14,24,24.80
2021,04,16,14,25,24.90
2021,04,16,14,26,24.90
2021,04,16,14,27,25.00
2021,04,16,14,28,25.00
2021,04,16,14,29,25.00
2021,04,16,14,30,25.00
2021,04,16,14,31,24.90
2021,04,16,14,32,24.90
2021,04,16,14,33,24.90
2021,04,16,14,34,24.90
2021,04,16,14,35,25.00
2021,04,16,14,36,25.10
2021,04,16,14,37,25.10
2021,04,16,14,38,25.10
2021,04,16,14,39,25.10
2021,04,16,14,40,25.10
2021,04,16,14,41,25.10
2021,04,16,14,42,25.10
2021,04,16,14,43,25.20
2021,04,16,14,44,25.10
2021,04,16,14,45,25.10
2021,04,16,14,46,25.20
2021,04,16,14,47,25.20
2021,04,16,14,48,25.20
2021,04,16,14,49,25.30
2021,04,16,14,50,25.30
2021,04,16,14,51,25.30
2021,04,16,14,52,25.30
2021,04,16,14,53,25.30
2021,04,16,14,54,25.30
2021,04,16,14,55,25.30
2021,04,16,14,56,25.30
2021,04,16,14,57,25.30
2021,04,16,14,58,25.40
2021,04,16,14,59,25.50
2021,04,16,15,00,25.50
2021,04,16,15,01,25.60
2021,04,16,15,02,25.70
2021,04,16,15,03,25.70
2021,04,16,15,04,25.70
2021,04,16,15,05,25.80
2021,04,16,15,06,25.90
2021,04,16,15,07,25.90
2021,04,16,15,08,26.00
2021,04,16,15,09,26.10
2021,04,16,15,10,26.10
2021,04,16,15,11,26.10
2021,04,16,15,12,26.10
2021,04,16,15,13,26.10
2021,04,16,15,14,26.10
2021,04,16,15,15,26.10
2021,04,16,15,16,26.10
2021,04,16,15,17,26.20
2021,04,16,15,18,26.20
2021,04,16,15,19,26.30
2021,04,16,15,20,26.30
2021,04,16,15,21,26.30
2021,04,16,15,22,26.30
2021,04,16,15,23,26.30
2021,04,16,15,24,26.20
2021,04,16,15,25,26.00
2021,04,16,15,26,25.90
2021,04,16,15,27,25.90
2021,04,16,15,28,25.80
2021,04,16,15,29,25.80
2021,04,16,15,30,25.80
2021,04,16,15,31,25.80
2021,04,16,15,32,25.80
2021,04,16,15,33,25.80
2021,04,16,15,34,25.80
2021,04,16,15,35,25.80
2021,04,16,15,36,25.80
2021,04,16,15,37,25.80
2021,04,16,15,38,25.80
2021,04,16,15,39,25.80
2021,04,16,15,40,25.90
2021,04,16,15,41,25.90
2021,04,16,15,42,26.00
2021,04,16,15,43,26.00
2021,04,16,15,44,26.00
2021,04,16,15,45,25.90
2021,04,16,15,46,25.90
2021,04,16,15,47,25.80
2021,04,16,15,48,25.80
2021,04,16,15,49,25.80
2021,04,16,15,50,25.80
2021,04,16,15,51,25.70
2021,04,16,15,52,25.70
2021,04,16,15,53,25.60
2021,04,16,15,54,25.70
2021,04,16,15,55,25.60
2021,04,16,15,56,25.60
2021,04,16,15,57,25.60
2021,04,16,15,58,25.60
2021,04,16,15,59,25.60
2021,04,16,16,00,25.60
2021,04,16,16,01,25.60
2021,04,16,16,02,25.60
2021,04,16,16,03,25.60
2021,04,16,16,04,25.60
2021,04,16,16,05,25.60
2021,04,16,16,06,25.50
2021,04,16,16,07,25.40
2021,04,16,16,08,25.40
2021,04,16,16,09,25.40
2021,04,16,16,10,25.40
2021,04,16,16,11,25.40
2021,04,16,16,12,25.40
2021,04,16,16,13,25.50
2021,04,16,16,14,25.50
2021,04,16,16,15,25.50
2021,04,16,16,16,25.60
2021,04,16,16,17,25.60
2021,04,16,16,18,25.60
2021,04,16,16,19,25.50
2021,04,16,16,20,25.50
2021,04,16,16,21,25.50
2021,04,16,16,22,25.50
2021,04,16,16,23,25.50
2021,04,16,16,24,25.40
2021,04,16,16,25,25.40
2021,04,16,16,26,25.40
2021,04,16,16,27,25.40
2021,04,16,16,28,25.40
2021,04,16,16,29,25.30
2021,04,16,16,30,25.30
2021,04,16,16,31,25.30
2021,04,16,16,32,25.30
2021,04,16,16,33,25.40
2021,04,16,16,34,25.30
2021,04,16,16,35,25.30
2021,04,16,16,36,25.40
2021,04,16,16,37,25.40
2021,04,16,16,38,25.40
2021,04,16,16,39,25.30
2021,04,16,16,40,25.30
2021,04,16,16,41,25.30
2021,04,16,16,42,25.30
2021,04,16,16,43,25.30
2021,04,16,16,44,25.30
2021,04,16,16,45,25.30
2021,04,16,16,46,25.40
2021,04,16,16,47,25.40
2021,04,16,16,48,25.30
2021,04,16,16,49,25.20
2021,04,16,16,50,25.20
2021,04,16,16,51,25.10
2021,04,16,16,52,25.10
2021,04,16,16,53,25.10
2021,04,16,16,54,25.10
2021,04,16,16,55,25.10
2021,04,16,16,56,25.10
2021,04,16,16,57,25.10
2021,04,16,16,58,25.10
2021,04,16,16,59,25.10
2021,04,16,17,00,25.10
2021,04,16,17,01,25.00
2021,04,16,17,02,25.00
2021,04,16,17,03,24.90
2021,04,16,17,04,24.90
2021,04,16,17,05,24.90
2021,04,16,17,06,24.90
2021,04,16,17,07,24.80
2021,04,16,17,08,24.80
2021,04,16,17,09,24.80
2021,04,16,17,10,24.80
2021,04,16,17,11,24.80
2021,04,16,17,12,24.70
2021,04,16,17,13,24.70
2021,04,16,17,14,24.70
2021,04,16,17,15,24.70
2021,04,16,17,16,24.70
2021,04,16,17,17,24.60
2021,04,16,17,18,24.60
2021,04,16,17,19,24.60
2021,04,16,17,20,24.60
2021,04,16,17,21,24.60
2021,04,16,17,22,24.50
2021,04,16,17,23,24.60
2021,04,16,17,24,24.60
2021,04,16,17,25,24.60
2021,04,16,17,26,24.60
2021,04,16,17,27,24.60
2021,04,16,17,28,24.60
2021,04,16,17,29,24.60
2021,04,16,17,30,24.60
2021,04,16,17,31,24.60
2021,04,16,17,32,24.60
2021,04,16,17,33,24.60
2021,04,16,17,34,24.60
2021,04,16,17,35,24.50
2021,04,16,17,36,24.50
2021,04,16,17,37,24.40
2021,04,16,17,38,24.30
2021,04,16,17,39,24.20
2021,04,16,17,40,24.10
2021,04,16,17,41,24.10
2021,04,16,17,42,24.00
2021,04,16,17,43,24.00
2021,04,16,17,44,23.90
2021,04,16,17,45,23.90